Location: ?
(35.6144°N, 139.6873°E)
Time: 18:12:29
(UTC+00:00)

Cosmos 2237 Rocket - Pass Details

Date: 23 May 2024
Orbit: 834 x 850 km, 71.0° (Epoch: 22 June)

Event Time Altitude Azimuth Distance (km) Brightness Sun altitude
Rises 10:18:55 0° 225° (SW) 3,393 5.5 -6.8°
Reaches altitude 10° 10:21:34 10° 234° (SW) 2,463 4.9 -7.2°
Maximum altitude 10:26:40 34° 298° (WNW) 1,368 4.2 -8.1°
Drops below altitude 10° 10:31:49 10° 3° (N) 2,480 5.1 -9.0°
Sets 10:34:31 0° 13° (NNE) 3,420 5.7 -9.4°
